CDT,Max TemperatureF,Mean TemperatureF,Min TemperatureF,Max Dew PointF,MeanDew PointF,Min DewpointF,Max Humidity, Mean Humidity, Min Humidity, Max Sea Level PressureIn, Mean Sea Level PressureIn, Min Sea Level PressureIn, Max VisibilityMiles, Mean VisibilityMiles, Min VisibilityMiles, Max Wind SpeedMPH, Mean Wind SpeedMPH, Max Gust SpeedMPH,PrecipitationIn, CloudCover, Events, WindDirDegrees
2013-10-1,82,70,57,65,61,54,100,82,54,29.99,29.93,29.85,10,7,0,13,7,17,0.01,2,Fog,176
2013-10-2,84,72,63,70,66,59,100,85,53,30.03,29.96,29.87,10,7,0,14,6,20,0.00,4,Fog,159
2013-10-3,84,75,66,68,65,61,90,77,53,29.92,29.82,29.72,10,10,8,21,11,30,0.00,3,,164
2013-10-4,88,76,66,69,66,63,94,76,46,29.93,29.81,29.72,10,9,2,23,14,33,0.36,3,Rain-Thunderstorm,186
2013-10-5,60,53,46,50,38,34,70,57,41,30.04,29.97,29.91,10,10,10,16,11,26,0.01,2,,275
2013-10-6,61,52,43,43,38,32,80,63,47,30.03,29.93,29.88,10,10,10,22,13,28,0.00,5,,282
2013-10-7,72,57,42,45,41,36,83,62,33,30.17,30.10,30.02,10,10,7,9,6,,0.00,0,,236
2013-10-8,75,60,46,48,45,42,83,60,32,30.12,30.07,30.02,10,10,10,17,9,30,0.00,0,,160
2013-10-9,77,64,52,48,46,43,80,58,32,30.10,30.05,30.01,10,10,10,13,10,21,0.00,0,,149
2013-10-10,79,64,50,54,50,45,86,63,40,30.07,29.99,29.86,10,10,10,15,8,22,0.00,0,,155
2013-10-11,77,66,57,64,58,53,88,75,62,29.87,29.82,29.77,10,9,1,23,12,43,0.55,3,Rain-Thunderstorm,166
2013-10-12,69,58,48,57,44,39,90,62,35,30.26,30.09,29.90,10,10,10,14,8,100,0.00,1,,347
2013-10-13,71,58,46,41,37,33,77,50,27,30.40,30.33,30.27,10,10,10,14,6,23,0.00,0,,73
2013-10-14,68,60,54,59,49,34,90,70,43,30.28,30.03,29.88,10,9,4,25,13,38,0.06,5,Rain,143
2013-10-15,60,52,43,58,46,37,96,75,47,30.09,29.99,29.89,10,9,2,16,12,25,0.19,3,Rain,275
2013-10-16,57,49,41,43,38,36,82,69,49,30.14,30.07,30.00,10,10,8,15,7,16,0.00,4,,290
2013-10-17,66,52,39,43,40,33,93,66,34,30.04,29.98,29.91,10,10,8,15,7,20,0.00,1,,245
2013-10-18,46,40,35,39,36,33,97,88,65,30.16,30.12,30.04,10,9,4,12,8,,0.20,5,Rain,308
2013-10-19,61,47,33,39,35,30,96,75,36,30.12,30.02,29.92,10,9,4,15,9,24,0.00,3,,212
2013-10-20,70,56,43,44,40,37,82,59,35,29.94,29.87,29.80,10,10,10,16,11,23,0.00,1,,213
2013-10-21,55,46,37,42,34,29,83,64,38,30.14,30.07,29.96,10,10,10,15,9,16,0.00,1,,331
2013-10-22,62,50,34,43,37,31,89,65,46,30.13,30.00,29.94,10,10,10,22,12,29,0.00,3,,286
2013-10-23,51,42,33,37,32,29,92,72,50,30.19,30.14,30.07,10,10,9,8,4,,0.00,3,,260
2013-10-24,51,41,32,35,28,22,86,64,36,30.46,30.36,30.20,10,10,9,13,9,21,0.00,2,,343
2013-10-25,55,40,26,31,25,22,89,57,27,30.50,30.38,30.17,10,10,10,16,5,21,0.00,0,,183
2013-10-26,62,49,37,42,34,29,82,60,32,30.20,30.15,30.09,10,10,10,15,10,,0.00,0,,289
2013-10-27,63,45,27,32,29,25,92,60,28,30.17,30.07,29.97,10,10,9,13,4,,0.00,0,,188
2013-10-28,63,50,37,49,42,29,89,75,60,30.15,30.11,30.01,10,9,6,13,6,,0.00,0,,151
2013-10-29,66,58,51,64,57,48,100,94,82,30.10,30.01,29.94,10,4,1,12,9,18,0.91,8,Rain-Thunderstorm,129
2013-10-30,69,64,60,65,63,60,100,93,79,29.97,29.81,29.72,10,6,1,22,11,30,2.14,8,Rain-Thunderstorm,179
2013-10-31,57,52,46,56,50,40,100,91,74,29.69,29.64,29.57,10,7,1,14,7,18,0.91,7,Rain-Thunderstorm,312